Find Starlink 5800

NORAD ID: 56041 Int'l Des: 2023-042 Owner: SPXS Country: US Constellation: starlink operational
LEOCIRCULAR

当前视图

正在加载3D地球...

关于 Starlink 5800

正在加载描述...

即将过境

Passes for default location (London). Set your location on the main map for personalized predictions.

高度历史

Loading altitude history...

两行轨道根数

1 56041U 23042BH 26149.43955542 -.00000169 00000-0 33937-5 0 9993
2 56041 43.0011 297.9518 0001842 259.9675 100.0969 15.27576322175510
Epoch: May 29, 2026 • Age: 17 hours

当前状态

高度 488.8 km
速度 7.62 km/s
星下点 -25.85°S, 39.44°W
发射日期 Mar 24, 2023
运行时间 3.1 years
类型 internet

技术详情

分类 Payload
质量 305.00 kg
干质量 290.00 kg
总质量 305.00 kg
长度 0.20 m
直径 2.80 m
跨度 9.00 m
形状 Box + pan
制造商 SPXS
平台类型 Starlink
阶段状态 In Orbit
所有者/国家 SPXS/US

Most Searched